Wind_Speed
5 5 6 6 6 6 6 6 5 6 7 6 6 7 8 7 7 7 7 8 8 8 8 9 9 9 10 10 10 10 10 10 10 10 11 11 11 11 10 10 9 9 9
7 7 7 6 6 6 6 6 6 6 7 8 8 8 9 8 7 7 7 7 7 8 8 8 9 10 10 11 11 11 11 11 11 12 12 12 12 13 12 10 10 10 9
8 9 8 7 7 7 7 7 8 8 8 8 8 8 9 8 8 8 8 7 7 8 8 9 9 9 10 11 12 12 12 12 12 13 13 13 14 13 12 12 12 11 10
9 9 9 9 8 8 9 9 9 9 9 9 9 9 9 9 9 8 8 8 8 8 8 8 9 9 9 10 11 12 12 13 14 14 15 14 14 14 13 13 13 12 12
9 9 9 8 8 8 9 10 10 10 10 9 9 9 9 9 9 8 8 8 8 8 8 9 9 9 9 9 11 11 12 12 13 14 14 14 14 15 15 14 14 13 13
10 10 9 9 8 9 9 10 10 10 10 10 9 9 9 8 9 9 8 8 8 8 8 9 9 9 9 9 10 11 12 12 12 12 13 14 14 15 14 14 14 14 14
11 10 10 9 9 10 10 9 10 10 9 9 9 9 9 8 8 8 9 9 9 8 9 9 9 9 9 9 10 11 11 12 12 11 11 12 13 14 14 14 14 14 15
12 11 11 10 11 11 10 10 10 10 10 10 9 9 9 9 9 9 9 9 9 9 10 10 10 10 10 10 10 11 11 12 12 11 11 11 12 13 14 15 15 15 15
12 13 13 12 12 11 11 11 11 11 10 10 10 10 10 9 9 9 9 10 10 10 11 12 12 12 12 11 12 12 13 12 12 12 12 12 12 13 15 16 15 16 16
14 13 13 13 12 12 12 12 11 11 11 11 11 11 11 10 10 10 10 11 11 11 12 12 13 13 13 13 13 13 14 13 13 13 14 14 14 14 14 15 16 16 16
15 15 14 14 13 13 13 12 12 12 12 11 11 11 11 11 11 11 12 12 12 12 13 13 14 14 14 14 14 14 14 14 14 14 14 15 15 15 15 16 16 16 17
16 16 15 15 15 14 13 13 13 13 12 12 12 12 12 12 12 12 13 13 14 13 14 14 14 14 14 15 15 15 15 15 15 16 16 15 15 15 16 16 16 16 18
17 17 17 17 16 15 15 15 15 14 14 14 13 14 14 14 14 14 15 15 15 15 15 15 15 15 16 16 16 16 16 16 16 17 18 18 17 17 17 17 17 18 18
18 18 19 18 17 17 16 16 16 16 16 16 16 15 16 16 16 17 17 17 17 17 17 17 17 17 16 16 17 17 18 18 18 18 18 18 19 19 19 19 19 19 19
19 19 20 19 18 18 18 17 17 18 18 18 18 17 18 18 18 18 18 18 18 19 18 18 18 18 18 18 18 18 18 18 19 18 18 18 19 20 21 21 21 21 21
21 22 21 20 19 19 19 19 19 19 19 19 19 19 19 19 19 19 19 18 19 19 20 20 20 20 20 20 20 20 19 19 19 20 20 20 21 21 21 21 21 21 21
22 22 22 22 21 20 20 21 21 20 21 21 21 20 20 19 19 19 19 20 20 21 21 21 21 21 21 21 21 22 21 21 20 21 21 21 21 22 22 22 22 23 23
24 23 23 23 22 22 22 22 22 22 22 22 22 21 21 20 20 20 21 21 21 20 21 21 22 23 23 23 22 22 22 23 23 22 22 22 22 22 23 23 23 23 24
25 25 24 24 24 24 24 24 24 24 24 23 23 23 22 22 21 22 22 21 21 22 22 22 23 23 23 23 24 24 24 24 23 23 23 23 23 23 24 24 24 24 24
26 26 25 25 25 24 24 25 24 24 24 24 24 24 24 23 23 23 23 22 22 22 22 22 22 23 23 23 24 25 25 25 24 24 24 24 24 25 25 25 25 25 24
27 27 26 26 26 26 26 25 25 25 25 24 24 25 25 24 24 24 23 23 23 23 23 23 23 23 24 24 24 25 25 25 25 25 25 25 25 26 26 25 25 25 24
27 27 27 27 27 27 27 27 26 25 24 24 24 25 25 25 25 25 24 25 25 24 24 24 24 24 25 25 26 26 26 26 26 26 26 26 26 26 26 26 26 26 26
28 27 27 27 27 26 26 26 26 25 24 24 24 24 23 23 24 24 25 25 25 25 25 24 25 25 26 26 26 27 27 28 28 28 28 28 28 27 27 27 27 27 27
28 27 27 27 27 26 25 24 24 24 24 24 24 24 24 23 24 24 25 25 25 25 24 24 25 25 26 27 27 27 28 28 29 29 29 29 28 28 28 27 26 26 26
28 27 27 27 26 26 25 25 24 24 23 23 23 24 23 23 23 24 24 24 24 24 24 24 25 26 27 28 28 28 28 29 29 29 29 28 28 29 28 27 26 26 26
29 28 28 27 26 26 26 25 25 24 24 24 24 24 24 24 23 24 23 23 23 23 24 25 26 26 26 27 28 28 28 28 28 28 27 28 28 28 28 27 27 27 27
Wind_Direction
307 304 298 295 290 290 287 276 284 288 289 290 291 288 287 286 284 283 282 277 274 269 266 262 259 256 257 260 261 258 257 255 257 259 256 259 259 259 257 257 260 261 258
311 313 305 301 292 286 276 279 293 290 287 288 288 286 283 280 280 282 283 279 274 270 265 259 259 258 260 259 256 258 258 256 258 261 258 260 262 259 259 260 259 258 257
308 311 305 301 295 295 295 298 289 288 287 287 289 288 284 279 277 278 279 278 275 270 264 260 260 259 261 261 256 257 258 258 261 263 260 261 263 258 256 255 256 259 259
305 305 305 302 296 294 301 303 296 289 286 288 293 293 286 279 280 281 280 278 273 271 269 267 264 264 262 262 262 258 257 260 265 266 262 261 262 259 258 256 254 256 258
310 308 307 303 298 299 300 298 296 297 294 294 295 296 290 282 281 282 281 279 274 270 271 273 270 267 267 268 269 265 266 268 271 269 264 260 258 258 260 258 257 258 260
310 312 312 305 297 297 298 295 294 297 297 293 291 293 290 285 283 281 279 277 278 272 272 276 277 277 274 275 274 274 275 279 282 273 266 260 256 256 258 256 259 261 262
303 308 310 308 303 303 304 301 297 298 296 296 294 293 292 286 283 281 281 280 278 276 274 277 279 280 276 277 277 276 280 284 284 276 270 262 255 254 257 257 260 263 263
298 300 302 305 303 303 302 300 300 297 296 297 298 296 295 289 285 283 280 279 280 280 280 280 279 280 278 278 281 279 283 287 288 281 277 269 260 255 257 257 261 262 265
294 296 298 301 302 301 299 298 299 297 294 294 294 293 292 291 286 285 283 281 281 282 281 279 280 280 279 280 280 281 284 286 288 288 279 277 273 265 265 266 264 265 268
296 293 296 298 300 300 297 295 295 296 294 294 292 290 290 290 287 281 283 284 282 284 283 280 280 280 279 276 278 278 281 282 283 283 281 279 277 274 271 268 266 266 267
291 290 291 293 296 298 296 293 293 293 292 293 292 293 292 290 287 284 282 284 283 283 285 282 284 281 278 276 277 278 280 281 282 280 279 279 278 277 279 277 273 270 269
289 288 289 291 292 293 292 290 290 289 289 290 290 291 290 288 287 287 286 286 286 283 284 285 285 283 280 280 281 279 280 284 282 279 279 279 279 278 278 279 277 275 273
289 286 287 288 288 287 288 288 287 287 286 286 289 289 289 287 285 285 287 288 286 284 284 287 286 284 284 283 285 284 281 281 283 282 280 279 279 280 279 279 280 278 275
289 286 286 286 284 283 284 285 285 284 286 286 286 287 288 286 285 284 286 287 286 285 286 287 285 285 287 287 286 286 284 282 283 284 283 282 282 281 281 280 280 282 278
286 285 286 284 283 281 281 282 283 283 283 283 283 285 285 286 286 285 285 286 286 287 288 289 287 286 287 287 287 286 286 286 284 282 284 285 285 283 283 282 279 280 278
286 285 283 283 281 280 280 280 282 283 282 280 280 282 282 284 285 284 285 286 287 288 289 291 290 289 288 288 288 286 285 285 284 283 284 285 286 284 281 280 280 279 278
284 286 284 282 281 280 280 280 281 281 281 280 280 281 282 283 284 285 285 286 287 288 289 289 288 287 288 287 287 286 285 285 285 282 282 283 285 283 282 281 279 277 275
282 284 284 281 280 279 279 280 282 282 281 280 279 279 280 282 282 283 285 286 286 287 288 287 286 286 287 286 285 285 284 285 286 284 282 283 285 284 283 281 278 278 277
279 281 281 280 281 280 279 279 280 281 281 279 279 280 280 280 280 283 284 285 286 286 287 287 286 286 286 285 285 284 283 284 285 285 283 283 284 284 282 280 279 279 277
278 279 280 281 281 280 279 279 279 279 279 279 278 279 280 280 279 280 282 283 284 286 288 288 288 288 287 287 287 285 285 284 284 284 283 282 282 282 281 280 279 279 278
277 277 278 279 280 280 279 278 278 278 278 278 278 278 279 280 280 280 280 282 283 285 286 287 287 288 288 287 287 286 286 284 285 284 283 283 282 282 280 280 279 278 278
275 275 276 277 280 281 279 277 275 276 277 277 277 278 280 281 280 280 281 282 284 285 287 288 288 289 289 288 287 287 287 286 285 282 282 282 282 282 281 280 278 276 275
275 277 277 277 278 279 279 278 275 275 276 275 277 279 280 281 280 280 280 281 283 284 286 287 289 290 289 288 287 285 285 285 285 283 282 281 281 281 280 279 278 276 275
275 278 279 279 277 276 278 278 276 274 276 276 277 278 279 280 279 280 280 281 283 283 285 288 289 289 289 289 289 287 286 287 287 285 284 284 282 281 279 278 275 274 275
275 276 277 277 277 276 277 277 276 276 275 275 276 277 278 277 277 280 281 281 282 283 284 286 287 289 290 291 290 288 288 287 286 286 284 284 284 283 281 278 275 274 275
273 273 273 274 275 276 276 276 277 276 276 276 276 277 278 277 278 279 280 280 280 282 283 284 287 289 290 291 291 290 288 286 287 285 284 283 283 283 281 278 276 275 275
Height
5875 5875 5875 5874 5874 5874 5874 5873 5874 5874 5874 5873 5873 5873 5873 5873 5873 5873 5874 5874 5874 5874 5875 5875 5876 5877 5877 5878 5879 5879 5880 5881 5882 5882 5883 5884 5884 5885 5885 5886 5886 5886 5887
5875 5874 5874 5874 5874 5873 5873 5872 5872 5873 5872 5872 5872 5872 5872 5872 5872 5872 5872 5872 5872 5873 5873 5873 5874 5874 5875 5875 5876 5877 5878 5878 5879 5880 5880 5881 5882 5882 5883 5883 5884 5884 5884
5874 5874 5873 5873 5873 5872 5872 5870 5871 5871 5871 5871 5871 5870 5870 5870 5870 5870 5870 5870 5871 5871 5871 5871 5872 5872 5872 5873 5873 5874 5875 5875 5876 5876 5876 5877 5878 5879 5880 5881 5881 5882 5882
5873 5873 5872 5871 5871 5871 5870 5870 5870 5870 5869 5869 5869 5869 5869 5868 5868 5868 5869 5869 5869 5869 5869 5870 5870 5870 5869 5870 5870 5871 5872 5872 5872 5872 5872 5872 5874 5875 5877 5878 5878 5879 5879
5872 5872 5871 5870 5870 5869 5869 5869 5869 5868 5868 5868 5867 5867 5867 5866 5866 5867 5867 5867 5867 5867 5867 5868 5868 5868 5867 5867 5868 5868 5869 5869 5868 5866 5866 5867 5869 5871 5873 5874 5875 5876 5876
5871 5870 5870 5869 5869 5868 5868 5868 5867 5867 5866 5866 5865 5865 5865 5864 5864 5865 5865 5865 5865 5865 5865 5866 5866 5866 5866 5866 5866 5866 5866 5866 5864 5862 5862 5863 5865 5867 5869 5871 5872 5873 5873
5870 5869 5869 5868 5867 5867 5867 5866 5866 5865 5864 5864 5863 5863 5863 5863 5863 5863 5863 5863 5863 5863 5864 5864 5864 5864 5864 5864 5864 5864 5864 5863 5861 5859 5859 5860 5862 5864 5866 5868 5869 5870 5870
5869 5868 5867 5867 5866 5865 5865 5864 5864 5863 5863 5862 5862 5861 5861 5861 5861 5860 5860 5861 5861 5861 5862 5862 5862 5862 5862 5862 5862 5862 5861 5861 5859 5858 5858 5858 5860 5862 5863 5864 5865 5866 5867
5867 5866 5866 5865 5864 5864 5863 5862 5862 5861 5861 5860 5860 5859 5859 5859 5859 5859 5858 5858 5858 5859 5859 5859 5859 5859 5859 5859 5859 5859 5858 5857 5858 5857 5857 5857 5858 5859 5860 5861 5861 5862 5863
5865 5864 5864 5863 5862 5861 5861 5860 5859 5859 5858 5858 5857 5857 5857 5856 5856 5856 5856 5856 5856 5856 5856 5856 5856 5856 5856 5856 5856 5856 5855 5855 5855 5855 5855 5856 5856 5856 5857 5857 5858 5858 5859
5862 5862 5862 5861 5860 5859 5859 5858 5857 5856 5856 5856 5855 5855 5854 5854 5854 5854 5854 5854 5853 5853 5853 5853 5852 5852 5852 5853 5853 5853 5853 5852 5852 5852 5852 5853 5853 5853 5854 5854 5854 5854 5854
5860 5859 5859 5858 5858 5857 5856 5855 5855 5854 5853 5853 5853 5852 5852 5852 5851 5851 5851 5850 5850 5850 5850 5850 5850 5849 5849 5849 5849 5850 5850 5849 5849 5849 5849 5849 5849 5849 5850 5850 5850 5850 5850
5856 5856 5856 5855 5855 5854 5853 5853 5852 5851 5850 5850 5849 5849 5849 5849 5848 5848 5848 5847 5847 5847 5847 5846 5846 5846 5846 5846 5846 5846 5846 5846 5845 5845 5845 5845 5845 5845 5846 5846 5846 5845 5845
5853 5853 5852 5852 5851 5851 5850 5849 5849 5848 5847 5846 5846 5846 5846 5845 5845 5844 5844 5844 5843 5843 5843 5843 5842 5842 5842 5842 5842 5841 5842 5842 5841 5841 5841 5841 5841 5841 5841 5841 5841 5841 5840
5849 5849 5848 5848 5847 5847 5846 5846 5845 5844 5844 5843 5843 5842 5842 5841 5841 5840 5840 5840 5840 5839 5839 5838 5838 5837 5837 5837 5837 5837 5837 5837 5837 5836 5836 5836 5836 5835 5836 5836 5836 5836 5835
5845 5844 5844 5843 5843 5842 5842 5841 5841 5840 5839 5839 5839 5838 5838 5837 5837 5836 5836 5835 5835 5834 5834 5834 5833 5833 5833 5832 5832 5832 5832 5831 5831 5831 5831 5830 5830 5830 5830 5830 5830 5830 5830
5841 5840 5839 5838 5838 5837 5837 5836 5836 5835 5835 5834 5834 5834 5833 5833 5832 5832 5831 5830 5830 5830 5829 5829 5828 5827 5827 5827 5826 5826 5826 5826 5826 5825 5825 5824 5824 5824 5824 5824 5824 5823 5823
5835 5835 5834 5833 5832 5832 5831 5831 5831 5830 5829 5829 5829 5828 5828 5827 5827 5827 5826 5826 5825 5824 5824 5824 5823 5822 5822 5821 5821 5820 5820 5820 5820 5819 5819 5818 5818 5818 5818 5817 5817 5817 5817
5829 5829 5828 5828 5827 5826 5826 5825 5825 5824 5824 5823 5823 5823 5822 5822 5822 5821 5821 5820 5819 5819 5818 5817 5817 5816 5816 5815 5815 5814 5814 5813 5813 5813 5812 5812 5812 5811 5811 5811 5810 5810 5810
5823 5823 5822 5821 5821 5820 5819 5819 5818 5818 5817 5817 5817 5817 5816 5816 5816 5815 5815 5814 5813 5813 5812 5811 5811 5810 5809 5809 5808 5808 5807 5807 5806 5806 5805 5805 5805 5805 5804 5804 5804 5803 5803
5816 5816 5816 5815 5814 5813 5812 5812 5812 5811 5811 5811 5810 5810 5810 5810 5809 5809 5808 5808 5807 5806 5806 5805 5805 5804 5803 5802 5802 5801 5800 5799 5799 5798 5798 5798 5797 5797 5796 5796 5796 5796 5796
5809 5809 5809 5808 5807 5806 5805 5804 5804 5804 5804 5804 5804 5803 5803 5803 5803 5802 5802 5801 5801 5800 5800 5799 5798 5797 5796 5795 5795 5794 5793 5792 5792 5791 5790 5790 5790 5789 5789 5789 5789 5788 5788
5802 5802 5801 5801 5800 5799 5798 5797 5797 5797 5797 5797 5797 5796 5796 5796 5796 5796 5796 5795 5795 5794 5794 5793 5792 5791 5790 5788 5787 5786 5785 5785 5784 5783 5783 5782 5782 5781 5781 5780 5780 5780 5780
5794 5794 5794 5793 5793 5792 5791 5790 5790 5790 5790 5790 5790 5790 5790 5789 5789 5789 5789 5789 5788 5787 5787 5786 5785 5784 5782 5781 5780 5779 5778 5777 5776 5775 5774 5774 5773 5773 5772 5772 5771 5771 5771
5787 5787 5787 5786 5786 5785 5784 5784 5783 5783 5783 5783 5783 5783 5783 5783 5783 5782 5782 5782 5782 5781 5780 5779 5778 5777 5775 5774 5772 5771 5770 5769 5768 5767 5766 5765 5765 5764 5764 5763 5763 5762 5762
5779 5779 5779 5779 5779 5778 5778 5777 5777 5776 5776 5777 5776 5776 5776 5776 5776 5775 5775 5775 5775 5774 5773 5772 5771 5769 5768 5766 5764 5763 5761 5760 5760 5759 5758 5757 5756 5756 5755 5755 5754 5754 5753